Weather History for Lawrence, KS

Change the Weather History Date:

Saturday, May 31, 2014

  Actual Average Record
Temperature  
Mean Temperature 76 °F 70 °F  
Max Temperature 88 °F 81 °F 93 °F (2000)
Min Temperature 64 °F 58 °F 46 °F (2001)
Degree Days  
Heating Degree Days 0 1  
Month to date heating degree days 114 105  
Since 1 July heating degree days 5635 5084  
Cooling Degree Days 11 6  
Month to date cooling degree days 183 96  
Year to date cooling degree days 193 119  
Growing Degree Days 26 (Base 50)    
Moisture  
Dew Point 65 °F    
Average Humidity 70    
Maximum Humidity 93    
Minimum Humidity 46    
Precipitation  
Precipitation 0.00 in 0.18 in 1.08 in (2005)
Month to date precipitation 2.07 5.19  
Year to date precipitation 7.66 13.89  
Sea Level Pressure  
Sea Level Pressure 29.99 in    
Wind  
Wind Speed 7 mph (SE)    
Max Wind Speed 16 mph    
Max Gust Speed 21 mph    
Visibility 9 miles    
Events      
T = Trace of Precipitation, MM = Missing Value Source: NWS Daily Summary

Daily Weather History Graph

Daily Weather History Graph

Search for Another Location

Airport:

Trip Planner

Search our weather history database for the weather conditions in past years. The results will help you decide how hot, cold, wet, or windy it might be!

Date:

Astronomy

May. 31, 2014 Rise Set
Actual Time 5:57 AM CDT 8:40 PM CDT
Civil Twilight 5:26 AM CDT 9:11 PM CDT
Nautical Twilight 4:46 AM CDT 9:50 PM CDT
Astronomical Twilight 4:02 AM CDT 10:35 PM CDT
Moon 8:34 AM CDT (5/31) 10:59 PM CDT (5/31)
Length of Visible Light 15h 45m
Length of Day
14h 42m
Waxing Crescent, 8% of the Moon is Illuminated
May 31
Waxing Crescent
Jun 5
First Quarter
Jun 12
Full
Jun 19
Last Quarter
Jun 27
New

Hourly Weather History & Observations

Time (CDT) Temp. Heat Index Dew Point Humidity Pressure Visibility Wind Dir Wind Speed Gust Speed Precip Events Conditions
12:52 AM 69.1 °F - 64.0 °F 84% 30.02 in 10.0 mi ENE 4.6 mph - N/A   Clear
1:52 AM 66.9 °F - 64.0 °F 90% 30.01 in 10.0 mi ESE 4.6 mph - N/A   Clear
2:52 AM 68.0 °F - 64.9 °F 90% 30.02 in 10.0 mi ESE 4.6 mph - N/A   Partly Cloudy
4:52 AM 66.0 °F - 64.9 °F 96% 30.03 in 5.0 mi Calm Calm - N/A   Clear
5:02 AM 64.9 °F - 64.0 °F 97% 30.05 in 2.0 mi Calm Calm - N/A   Clear
5:13 AM 66.0 °F - 64.0 °F 93% 30.05 in 5.0 mi East 3.5 mph - N/A   Partly Cloudy
5:52 AM 66.0 °F - 64.0 °F 93% 30.04 in 7.0 mi Calm Calm - N/A   Clear
6:52 AM 68.0 °F - 66.0 °F 93% 30.04 in 7.0 mi East 3.5 mph - N/A   Clear
7:52 AM 72.0 °F - 66.9 °F 84% 30.04 in 10.0 mi SE 9.2 mph - N/A   Clear
8:52 AM 75.9 °F - 66.9 °F 74% 30.04 in 10.0 mi SSE 9.2 mph - N/A   Clear
10:52 AM 80.1 °F 82.3 °F 66.9 °F 64% 30.04 in 10.0 mi Variable 4.6 mph - N/A   Scattered Clouds
11:52 AM 82.9 °F 84.6 °F 64.9 °F 54% 30.02 in 10.0 mi SE 8.1 mph - N/A   Partly Cloudy
12:52 PM 84.9 °F 86.1 °F 64.0 °F 49% 30.00 in 10.0 mi South 10.4 mph - N/A   Clear
1:52 PM 86.0 °F 87.3 °F 64.0 °F 48% 29.98 in 10.0 mi South 6.9 mph - N/A   Mostly Cloudy
2:52 PM 87.1 °F 88.3 °F 64.0 °F 46% 29.96 in 10.0 mi South 9.2 mph - N/A   Mostly Cloudy
3:52 PM 88.0 °F 89.3 °F 64.0 °F 45% 29.94 in 10.0 mi South 9.2 mph - N/A   Partly Cloudy
4:52 PM 86.0 °F 88.2 °F 66.0 °F 51% 29.94 in 10.0 mi South 13.8 mph - N/A   Mostly Cloudy
6:52 PM 84.9 °F 86.1 °F 64.0 °F 49% 29.91 in 10.0 mi South 12.7 mph - N/A   Partly Cloudy
7:52 PM 82.9 °F 85.0 °F 66.0 °F 56% 29.91 in 10.0 mi South 10.4 mph - N/A   Partly Cloudy
8:52 PM 79.0 °F - 66.0 °F 64% 29.92 in 10.0 mi SSE 6.9 mph - N/A   Partly Cloudy
9:52 PM 79.0 °F - 66.9 °F 66% 29.94 in 10.0 mi SSE 11.5 mph - N/A   Scattered Clouds
10:52 PM 75.9 °F - 66.0 °F 71% 29.95 in 10.0 mi SE 6.9 mph - N/A   Clear
11:52 PM 73.0 °F - 66.0 °F 79% 29.95 in 10.0 mi SSE 5.8 mph - N/A   Clear